TimeEDT,TemperatureF,Dew PointF,Humidity,Sea Level PressureIn,VisibilityMPH,Wind Direction,Wind SpeedMPH,Gust SpeedMPH,PrecipitationIn,Events,Conditions,WindDirDegrees,DateUTC
12:51 AM,64.0,48.0,56,30.17,10.0,SW,9.2,-,N/A,,Partly Cloudy,220,2013-05-15 04:51:00
1:51 AM,64.0,51.1,63,30.15,10.0,SW,8.1,-,0.02,,Clear,230,2013-05-15 05:51:00
2:51 AM,64.9,53.1,65,30.15,10.0,WSW,5.8,-,N/A,,Clear,240,2013-05-15 06:51:00
3:51 AM,64.9,54.0,68,30.14,10.0,SW,8.1,-,N/A,,Clear,220,2013-05-15 07:51:00
4:51 AM,64.9,54.0,68,30.12,10.0,SW,8.1,-,N/A,,Partly Cloudy,220,2013-05-15 08:51:00
5:51 AM,64.9,55.0,70,30.13,10.0,SW,9.2,-,N/A,,Mostly Cloudy,230,2013-05-15 09:51:00
6:51 AM,66.0,55.9,70,30.13,10.0,SW,8.1,-,N/A,,Overcast,220,2013-05-15 10:51:00
7:51 AM,66.9,57.9,73,30.13,10.0,SW,9.2,-,N/A,,Mostly Cloudy,220,2013-05-15 11:51:00
8:51 AM,68.0,59.0,73,30.12,10.0,SW,10.4,-,N/A,,Mostly Cloudy,220,2013-05-15 12:51:00
9:51 AM,71.1,59.0,66,30.11,10.0,SW,9.2,17.3,N/A,,Clear,220,2013-05-15 13:51:00
10:51 AM,73.0,60.1,64,30.10,10.0,SW,11.5,18.4,N/A,,Clear,220,2013-05-15 14:51:00
11:51 AM,73.0,61.0,66,30.09,10.0,SW,15.0,21.9,N/A,,Clear,220,2013-05-15 15:51:00
12:51 PM,75.0,61.0,62,30.07,10.0,SW,12.7,23.0,N/A,,Clear,220,2013-05-15 16:51:00
1:51 PM,75.0,60.1,60,30.05,10.0,SW,13.8,23.0,N/A,,Clear,220,2013-05-15 17:51:00
2:51 PM,75.0,60.1,60,30.03,10.0,SW,13.8,25.3,N/A,,Clear,230,2013-05-15 18:51:00
3:51 PM,73.9,61.0,64,30.00,10.0,SW,16.1,23.0,N/A,,Clear,230,2013-05-15 19:51:00
4:51 PM,73.0,61.0,66,29.98,10.0,SW,17.3,26.5,N/A,,Clear,230,2013-05-15 20:51:00
5:51 PM,72.0,61.0,68,29.96,9.0,SW,17.3,25.3,N/A,,Clear,230,2013-05-15 21:51:00
6:51 PM,71.1,61.0,70,29.95,9.0,SW,17.3,25.3,N/A,,Clear,230,2013-05-15 22:51:00
7:51 PM,69.1,62.1,78,29.95,8.0,SW,16.1,24.2,N/A,,Clear,230,2013-05-15 23:51:00
8:51 PM,69.1,62.1,78,29.95,9.0,SW,18.4,25.3,N/A,,Clear,230,2013-05-16 00:51:00
9:51 PM,69.1,62.1,78,29.96,9.0,SW,17.3,26.5,0.03,,Clear,230,2013-05-16 01:51:00
10:51 PM,69.1,62.1,78,29.96,8.0,WSW,16.1,24.2,N/A,,Clear,240,2013-05-16 02:51:00
11:51 PM,69.1,62.1,78,29.95,8.0,WSW,15.0,23.0,N/A,,Clear,240,2013-05-16 03:51:00